Date String (YYYY-MM-DD hh:mm:ss) UTC,Instrument flags,absolute air pressure of the measurement (hPa),sample flow rate (lpm),inlet stack bypass flow (lpm),air temperature of the measurement (°C),ambient temperature measured by the external sensor (°C),aerosol sample conditioner tube jacket temperature (°C),OPC LED temperature (°C),internal box temperature (°C),relative humidity of the measurement (%),span deviation,mass concentration of particles derived from Lorenz-Mie calculation of OPC scattering (μg/m³),mass concentration of particles derived from Lorenz-Mie calculation of OPC scattering (μg/m³),mass concentration of particles derived from Lorenz-Mie calculation of OPC scattering (μg/m³)
DateTimeUTC,F1_M11,P_M11,Q1_M11,Q2_M11,T1_M11,T2_M11,T3_M11,T4_M11,T5_M11,U1_M11,ZSPAN_M11,X2_M11,X0_M11,X1_M11
2024-01-10 19:00:00,SystemResetWarning,0811.7,5.00,000.00,018.6,017.4,000.0,027.3,020.0,7.1,0000.0,0000.68,0004.48,0000.42
2024-01-10 19:01:00,SystemResetWarning,0811.8,4.99,000.00,018.6,017.4,000.0,027.3,020.0,7.2,0000.0,0000.70,0004.63,0000.44
2024-01-10 19:02:00,SystemResetWarning,0811.7,5.00,000.00,018.6,017.3,000.0,027.3,020.0,7.1,0000.0,0000.72,0004.67,0000.45
2024-01-10 19:03:00,SystemResetWarning,0811.9,5.00,000.00,018.7,017.5,000.0,027.2,020.1,7.0,0000.0,0000.76,0004.71,0000.48
2024-01-10 19:04:00,SystemResetWarning,0811.7,5.02,000.00,018.8,018.3,000.0,027.2,020.6,7.1,0000.0,0000.81,0004.83,0000.50
2024-01-10 19:05:00,SystemResetWarning,0811.7,4.98,000.00,018.9,019.2,000.0,027.2,020.9,6.9,0000.0,0000.87,0004.96,0000.53
2024-01-10 19:06:00,SystemResetWarning,0811.8,4.99,000.00,019.0,019.2,000.0,027.2,020.7,6.9,0000.0,0000.95,0005.14,0000.55
2024-01-10 19:07:00,SystemResetWarning,0811.9,5.00,000.00,019.0,019.0,000.0,027.2,020.4,7.0,0000.0,0001.03,0006.95,0000.57
2024-01-10 19:08:00,SystemResetWarning,0811.9,5.00,000.00,019.0,018.7,000.0,027.2,020.2,7.0,0000.0,0001.08,0007.54,0000.60
2024-01-10 19:09:00,SystemResetWarning,0811.7,5.00,000.00,019.0,018.4,000.0,027.2,020.1,7.0,0000.0,0001.14,0007.92,0000.63
2024-01-10 19:10:00,SystemResetWarning,0811.7,5.00,000.00,018.9,018.2,000.0,027.2,020.0,7.0,0000.0,0001.16,0007.32,0000.64
2024-01-10 19:11:00,SystemResetWarning,0811.7,5.01,000.00,018.9,018.0,000.0,027.2,020.0,7.0,0000.0,0001.20,0007.34,0000.64
2024-01-10 19:12:00,SystemResetWarning,0811.7,5.00,000.00,018.9,017.8,000.0,027.2,020.0,6.9,0000.0,0001.22,0007.44,0000.66
2024-01-10 19:13:00,SystemResetWarning,0811.7,5.00,000.00,018.8,017.7,000.0,027.2,020.0,6.9,0000.0,0001.27,0007.77,0000.68
2024-01-10 19:14:00,SystemResetWarning,0811.6,5.00,000.00,018.8,017.6,000.0,027.2,020.0,7.0,0000.0,0001.29,0007.77,0000.69
2024-01-10 19:15:00,SystemResetWarning,0811.7,5.00,000.00,018.8,017.5,000.0,027.2,020.0,7.0,0000.0,0001.32,0007.75,0000.70
2024-01-10 19:16:00,SystemResetWarning,0811.7,5.01,000.00,018.7,017.5,000.0,027.2,020.0,7.0,0000.0,0001.30,0007.74,0000.70
2024-01-10 19:17:00,SystemResetWarning,0811.6,5.00,000.00,018.7,017.4,000.0,027.2,020.0,6.9,0000.0,0001.30,0007.91,0000.70
2024-01-10 19:18:00,SystemResetWarning,0811.7,4.99,000.00,018.7,017.3,000.0,027.2,020.0,6.8,0000.0,0001.25,0007.16,0000.69
2024-01-10 19:19:00,SystemResetWarning,0811.6,5.00,000.00,018.7,017.3,000.0,027.2,020.0,6.8,0000.0,0001.21,0006.50,0000.67
2024-01-10 19:20:00,SystemResetWarning,0811.6,5.01,000.00,018.7,017.2,000.0,027.2,020.0,6.7,0000.0,0001.17,0005.22,0000.66
2024-01-10 19:21:00,SystemResetWarning,0811.6,5.01,000.00,018.7,017.3,000.0,027.2,020.1,6.6,0000.0,0001.14,0004.90,0000.66
2024-01-10 19:22:00,SystemResetWarning,0811.6,5.00,000.00,018.8,018.1,000.0,027.2,020.5,6.6,0000.0,0001.07,0003.66,0000.67
2024-01-10 19:23:00,SystemResetWarning,0811.7,5.00,000.00,018.9,019.1,000.0,027.2,020.9,6.4,0000.0,0001.03,0003.08,0000.68
2024-01-10 19:24:00,SystemResetWarning,0811.6,4.98,000.00,019.0,019.2,000.0,027.2,020.7,6.5,0000.0,0001.01,0002.34,0000.67
2024-01-10 19:25:00,SystemResetWarning,0811.5,5.01,000.00,019.0,019.0,000.0,027.2,020.6,6.4,0000.0,0001.05,0002.49,0000.66
2024-01-10 19:26:00,SystemResetWarning,0811.5,5.01,000.00,019.0,018.8,000.0,027.2,020.4,6.3,0000.0,0001.03,0002.47,0000.66
2024-01-10 19:27:00,SystemResetWarning,0811.5,5.00,000.00,018.9,018.5,000.0,027.2,020.1,6.4,0000.0,0001.06,0002.53,0000.66
2024-01-10 19:28:00,SystemResetWarning,0811.5,5.00,000.00,018.9,018.3,000.0,027.2,020.0,6.5,0000.0,0001.10,0002.32,0000.67
2024-01-10 19:29:00,SystemResetWarning,0811.4,4.99,000.00,018.8,018.1,000.0,027.2,020.0,6.4,0000.0,0001.18,0002.17,0000.68
2024-01-10 19:30:00,SystemResetWarning,0811.3,4.99,000.00,018.8,018.0,000.0,027.2,020.0,6.2,0000.0,0001.21,0002.28,0000.69
2024-01-10 19:31:00,SystemResetWarning,0811.4,5.00,000.00,018.7,017.8,000.0,027.2,020.0,6.2,0000.0,0001.28,0002.58,0000.68
2024-01-10 19:32:00,SystemResetWarning,0811.5,5.01,000.00,018.7,017.7,000.0,027.2,020.0,6.1,0000.0,0001.31,0003.02,0000.68
2024-01-10 19:33:00,SystemResetWarning,0811.4,5.00,000.00,018.7,017.6,000.0,027.2,020.0,6.3,0000.0,0001.32,0003.05,0000.67
2024-01-10 19:34:00,SystemResetWarning,0811.4,5.01,000.00,018.7,017.6,000.0,027.2,020.0,6.2,0000.0,0001.33,0003.05,0000.65
2024-01-10 19:35:00,SystemResetWarning,0811.3,4.99,000.00,018.6,017.5,000.0,027.2,020.0,6.1,0000.0,0001.34,0003.30,0000.64
2024-01-10 19:36:00,SystemResetWarning,0811.3,4.99,000.00,018.6,017.4,000.0,027.2,020.0,6.1,0000.0,0001.34,0003.70,0000.64
2024-01-10 19:37:00,SystemResetWarning,0811.2,5.01,000.00,018.6,017.3,000.0,027.2,020.0,6.1,0000.0,0001.30,0003.59,0000.63
2024-01-10 19:38:00,SystemResetWarning,0811.2,5.01,000.00,018.6,017.3,000.0,027.2,020.0,6.2,0000.0,0001.24,0003.46,0000.60
2024-01-10 19:39:00,SystemResetWarning,0811.2,4.99,000.00,018.6,017.2,000.0,027.2,020.0,6.2,0000.0,0001.21,0004.18,0000.59
2024-01-10 19:40:00,SystemResetWarning,0811.2,4.99,000.00,018.6,017.2,000.0,027.2,020.0,6.2,0000.0,0001.10,0004.63,0000.57
2024-01-10 19:41:00,SystemResetWarning,0811.1,4.99,000.00,018.6,017.2,000.0,027.2,020.0,6.1,0000.0,0001.02,0004.45,0000.55
2024-01-10 19:42:00,SystemResetWarning,0811.1,5.01,000.00,018.6,017.1,000.0,027.2,020.0,6.0,0000.0,0000.94,0004.21,0000.54
2024-01-10 19:43:00,SystemResetWarning,0811.2,5.01,000.00,018.6,017.7,000.0,027.1,020.3,6.0,0000.0,0000.90,0003.81,0000.53
2024-01-10 19:44:00,SystemResetWarning,0811.2,4.99,000.00,018.8,018.7,000.0,027.1,020.8,6.0,0000.0,0000.89,0003.80,0000.53
2024-01-10 19:45:00,SystemResetWarning,0811.1,4.99,000.00,018.9,019.1,000.0,027.1,020.8,5.8,0000.0,0000.92,0004.54,0000.53
2024-01-10 19:46:00,SystemResetWarning,0811.2,5.00,000.00,019.0,019.0,000.0,027.1,020.5,5.7,0000.0,0000.95,0004.49,0000.53
2024-01-10 19:47:00,SystemResetWarning,0811.3,5.00,000.00,018.9,018.7,000.0,027.1,020.2,5.8,0000.0,0000.95,0003.96,0000.52
2024-01-10 19:48:00,SystemResetWarning,0811.2,5.00,000.00,018.9,018.5,000.0,027.1,020.0,5.8,0000.0,0001.00,0004.19,0000.52
2024-01-10 19:49:00,SystemResetWarning,0811.2,5.02,000.00,018.9,018.2,000.0,027.1,020.0,5.8,0000.0,0001.06,0004.78,0000.53
2024-01-10 19:50:00,SystemResetWarning,0811.3,5.00,000.00,018.8,018.0,000.0,027.2,020.0,5.9,0000.0,0001.06,0004.19,0000.52
2024-01-10 19:51:00,SystemResetWarning,0811.3,5.00,000.00,018.8,017.9,000.0,027.2,020.0,5.8,0000.0,0001.09,0004.86,0000.52
2024-01-10 19:52:00,SystemResetWarning,0811.2,4.99,000.00,018.8,017.7,000.0,027.2,020.0,5.8,0000.0,0001.14,0006.29,0000.52
2024-01-10 19:53:00,SystemResetWarning,0811.1,4.99,000.00,018.8,017.6,000.0,027.2,020.0,5.9,0000.0,0001.18,0006.89,0000.51
2024-01-10 19:54:00,SystemResetWarning,0811.1,5.00,000.00,018.7,017.6,000.0,027.2,020.0,6.0,0000.0,0001.17,0007.55,0000.50
2024-01-10 19:55:00,SystemResetWarning,0811.1,5.00,000.00,018.7,017.5,000.0,027.2,020.0,5.9,0000.0,0001.15,0007.53,0000.50
2024-01-10 19:56:00,SystemResetWarning,0811.1,5.01,000.00,018.7,017.5,000.0,027.2,020.0,5.8,0000.0,0001.16,0007.87,0000.50
2024-01-10 19:57:00,SystemResetWarning,0811.0,5.01,000.00,018.7,017.4,000.0,027.2,020.0,5.8,0000.0,0001.16,0007.89,0000.49
2024-01-10 19:58:00,SystemResetWarning,0811.0,4.99,000.00,018.7,017.4,000.0,027.2,020.0,5.7,0000.0,0001.10,0007.89,0000.49
2024-01-10 19:59:00,SystemResetWarning,0811.0,4.99,000.00,018.7,017.4,000.0,027.2,020.0,5.7,0000.0,0001.06,0007.86,0000.49
